Wetbulb
73.64 72.94 71.48 68.60 60.04 60.53 54.30 55.67 60.72 60.85 60.75 63.96 63.98 62.05 60.79 63.04 60.58 55.13 66.53 69.34 69.47 69.64 73.14 74.92 76.70 76.16 76.18 76.40 76.67 76.71 76.56 76.23 75.89 76.34 76.39 75.64 76.14 75.83 75.04 75.85 75.16 75.81 76.03 76.04 76.21 76.65 76.65 76.93 76.52
72.50 71.52 69.97 66.36 57.75 51.02 53.44 59.28 58.83 61.38 63.98 64.34 65.44 65.37 63.86 61.86 66.08 64.80 66.78 69.94 69.50 72.27 73.33 74.48 77.04 77.04 76.55 76.48 76.67 76.79 76.59 76.49 76.08 76.36 75.76 76.46 76.04 76.08 74.84 75.54 75.77 75.98 75.86 75.94 76.27 76.39 76.34 76.35 75.77
72.02 71.75 64.98 61.59 56.20 52.73 54.20 59.55 61.41 64.98 65.34 65.43 64.63 66.42 64.95 63.17 65.41 65.75 69.63 69.65 71.65 72.53 73.58 74.63 77.07 76.92 76.63 76.55 76.55 76.80 76.93 76.01 76.26 76.55 75.91 75.89 75.94 75.68 75.81 75.71 75.90 76.04 75.90 75.96 76.09 76.18 75.90 75.33 75.42
69.49 69.12 64.99 56.74 54.56 58.04 59.11 61.48 63.69 63.98 65.46 66.04 64.97 62.52 66.28 68.03 66.27 69.22 70.29 70.44 71.29 72.94 74.13 76.33 76.66 76.49 76.48 76.67 77.05 76.71 76.26 76.27 76.52 75.89 76.18 76.26 75.61 75.86 75.98 75.84 75.82 75.95 76.07 75.44 76.05 75.63 75.38 75.44 75.36
70.04 66.76 56.84 55.61 55.91 59.30 62.04 63.77 64.38 63.15 64.02 64.20 65.29 62.21 63.35 68.01 70.21 70.34 70.17 70.77 71.53 72.16 73.66 74.90 77.43 76.86 76.60 76.43 76.43 76.76 76.50 76.56 76.72 76.35 76.31 76.07 76.21 75.99 75.75 75.75 75.69 75.83 75.59 75.56 75.33 75.19 75.16 74.95 75.66
63.71 65.36 56.30 53.91 55.83 60.15 63.12 63.24 63.41 64.19 64.31 64.99 63.80 63.25 64.21 69.18 69.37 70.13 71.08 71.38 72.50 72.65 73.85 74.46 76.72 76.84 77.16 77.06 77.17 77.08 77.05 76.78 76.73 76.03 76.13 76.36 76.15 76.04 76.24 76.16 75.86 75.73 75.56 75.31 74.89 74.78 74.59 75.26 75.83
63.22 58.78 57.36 56.93 56.77 59.66 61.76 63.78 64.47 64.47 64.23 63.96 65.98 61.35 65.35 67.34 69.73 70.95 71.21 71.75 72.50 74.00 74.09 74.10 74.87 75.92 77.34 77.17 77.16 76.90 77.01 76.97 76.94 76.43 76.43 75.97 76.04 75.90 76.21 76.19 75.92 76.20 76.00 75.70 75.17 74.97 74.78 75.25 75.79
65.30 61.97 56.87 58.95 57.64 57.70 63.03 65.43 66.40 65.50 64.34 68.29 67.15 61.18 62.12 66.93 70.14 70.75 71.04 71.53 72.70 72.99 73.43 73.50 73.84 74.32 74.22 74.28 76.97 76.88 76.97 77.08 76.86 76.55 76.11 75.90 75.89 76.05 76.22 76.26 76.54 75.59 75.59 75.50 75.22 75.06 75.03 76.09 76.15
67.95 59.10 55.05 57.97 58.19 60.33 65.36 63.41 66.36 67.50 65.37 66.74 67.44 65.85 67.41 68.99 70.27 69.02 69.02 70.54 71.30 72.62 72.39 72.63 72.95 73.09 73.47 74.09 75.42 76.60 77.07 77.25 77.14 76.39 76.13 75.55 72.70 72.62 73.54 75.00 76.08 75.75 75.56 75.53 75.42 75.74 75.69 75.82 75.67
61.15 57.90 57.89 62.25 62.79 60.70 63.76 64.17 63.75 62.54 63.97 64.85 65.20 66.77 68.36 69.27 68.55 67.23 67.36 68.04 69.63 71.27 71.90 72.23 72.32 72.31 73.08 75.01 74.04 74.00 74.98 74.54 74.00 73.61 73.59 72.58 71.65 71.84 73.58 74.47 75.95 75.86 75.84 76.44 75.71 74.93 74.00 72.89 70.88
59.30 56.75 60.91 62.29 64.70 64.07 62.44 63.53 64.12 62.03 61.56 65.26 63.48 64.50 67.05 67.69 67.24 67.18 67.22 67.85 68.83 70.82 72.30 71.76 71.80 72.11 72.97 73.20 72.71 72.87 73.35 73.25 73.27 72.43 72.33 71.82 72.27 71.92 72.29 72.47 72.18 72.11 74.35 71.90 71.44 70.14 68.84 70.13 70.10
53.13 58.41 61.06 61.36 65.07 62.65 62.09 65.07 62.77 63.48 65.07 68.15 67.00 66.84 66.94 66.54 66.57 66.72 66.72 67.15 68.72 70.33 71.58 71.61 71.73 71.95 71.54 72.76 72.33 72.19 72.49 72.41 71.94 72.27 71.45 70.95 70.09 70.22 70.58 71.20 71.20 70.19 70.54 68.35 69.52 69.35 69.37 69.31 69.74
53.97 57.35 59.73 60.06 64.63 63.23 64.64 62.78 62.93 63.55 66.87 68.52 68.24 66.99 66.27 66.15 66.65 67.46 67.71 67.50 69.43 69.75 70.43 70.55 71.08 71.12 70.30 72.14 72.01 71.76 71.74 72.03 71.80 71.22 71.49 70.91 68.89 69.29 70.52 70.27 70.18 68.60 68.71 67.54 67.07 67.59 68.73 69.40 69.96
56.55 57.10 57.58 57.85 58.77 63.10 62.07 61.63 62.33 63.48 68.23 67.29 66.59 66.03 66.12 66.23 66.55 66.83 67.03 67.11 68.89 69.70 70.03 69.46 70.04 70.81 70.48 71.36 71.77 71.73 71.41 72.13 71.69 71.27 71.56 71.55 69.81 68.75 70.27 70.07 69.55 68.51 66.96 67.54 67.16 65.98 68.71 68.87 69.58
56.60 53.44 53.94 58.19 63.00 63.38 63.18 59.46 59.46 65.57 66.85 65.76 65.32 65.94 66.24 65.92 66.98 66.65 67.22 67.28 68.79 69.35 69.35 68.54 69.31 70.09 70.35 70.87 71.72 71.15 71.16 72.37 71.19 71.06 70.61 71.23 71.19 69.87 70.22 69.78 69.35 69.84 69.12 67.35 68.82 69.56 69.01 68.53 68.41
48.98 46.66 43.18 52.38 63.24 64.73 61.41 55.44 61.85 66.37 65.37 64.68 65.29 65.89 66.33 65.95 66.54 67.18 67.66 67.97 69.23 68.56 68.13 69.08 71.24 70.30 70.25 70.39 71.03 70.55 70.99 71.65 71.15 70.88 69.82 71.40 72.38 71.54 70.35 69.89 69.66 69.62 68.51 68.87 68.89 68.69 67.75 67.50 67.19
45.11 41.97 43.99 47.18 62.42 63.26 59.46 56.33 63.34 65.64 64.96 64.16 64.46 65.03 66.05 64.81 66.19 66.84 67.59 68.12 68.93 68.18 68.80 69.41 69.71 70.22 70.18 70.56 70.07 68.76 69.46 70.72 71.59 71.31 70.55 70.78 72.64 72.44 70.99 69.55 69.91 69.43 68.24 69.01 69.39 68.15 66.98 66.20 66.63
40.92 41.57 41.13 43.72 52.57 57.11 59.43 58.32 61.97 63.84 64.68 63.97 63.93 64.74 65.39 64.19 64.91 66.57 66.95 68.50 69.03 69.04 69.65 69.78 69.71 69.56 70.21 69.72 69.50 69.67 67.82 70.11 71.80 71.42 70.87 72.77 71.94 72.07 71.00 70.33 70.44 69.89 69.35 68.92 68.49 66.63 66.72 67.08 65.80
46.36 43.73 42.75 46.60 50.16 47.57 54.71 58.51 59.64 62.71 63.89 63.42 63.21 64.06 64.68 64.99 65.36 66.97 67.06 69.15 69.00 69.26 69.55 69.55 69.31 68.36 69.46 68.18 68.50 68.80 67.37 69.35 71.00 70.84 72.55 73.08 71.42 72.21 70.82 71.23 71.22 71.20 69.72 68.19 68.27 67.71 66.15 67.29 65.34
45.95 43.66 42.91 46.87 49.45 45.79 54.81 57.22 59.64 60.02 62.38 63.32 63.33 63.82 64.47 65.10 64.81 65.64 66.03 68.57 68.26 68.65 69.19 69.81 69.11 68.44 69.66 68.24 68.51 69.34 68.66 69.06 71.13 71.54 72.44 72.94 72.89 72.54 71.50 71.55 71.13 70.62 69.58 67.72 68.99 67.95 66.51 66.39 65.58
43.64 42.02 43.10 44.55 47.48 54.53 56.41 54.72 56.97 60.23 61.16 60.63 62.65 63.21 65.02 65.07 64.79 64.43 64.91 67.75 68.20 68.07 68.21 69.45 69.56 68.56 69.82 68.51 68.52 69.07 68.22 69.95 69.68 70.78 71.52 72.11 72.59 72.26 72.20 71.61 71.24 69.88 69.76 69.56 68.18 66.41 66.66 64.27 65.12
39.38 48.04 48.29 46.52 41.91 38.00 45.50 35.54 53.92 58.11 58.47 60.31 60.20 62.12 62.46 65.12 66.11 64.79 64.35 67.08 67.40 68.12 68.71 69.37 69.89 69.01 69.35 68.75 67.98 68.12 67.89 66.46 68.69 70.13 71.47 72.67 72.47 72.57 72.60 72.03 72.38 71.18 70.23 69.64 68.08 68.72 68.08 67.77 63.75
45.46 49.19 46.77 45.06 40.27 37.55 40.06 37.62 40.84 57.78 56.94 58.32 60.14 62.34 62.90 64.55 65.99 65.30 64.73 66.18 67.93 68.48 68.39 68.28 69.20 69.34 69.52 69.24 68.57 67.98 67.96 66.95 68.44 69.34 70.20 71.45 71.77 72.72 73.15 71.91 71.50 70.88 71.52 69.43 69.93 70.25 69.64 69.24 67.49
50.38 45.32 42.16 38.65 37.70 33.22 37.76 37.32 37.88 52.19 56.69 58.15 60.22 61.92 63.40 64.56 65.82 66.79 66.39 65.86 67.57 68.50 68.39 68.39 68.63 69.10 69.52 69.00 68.20 68.00 67.51 67.57 67.73 68.29 69.24 69.98 70.71 71.86 72.08 72.65 72.10 71.17 71.09 70.51 70.04 70.43 70.50 70.47 69.11
42.81 37.66 32.11 31.94 31.68 31.83 35.08 36.86 40.23 50.40 57.10 59.53 59.71 61.43 62.71 65.26 65.27 66.66 65.34 65.28 65.88 67.18 67.64 68.35 68.19 68.49 69.55 68.94 67.91 67.88 67.80 67.52 67.77 68.51 69.28 69.42 69.97 71.21 71.61 72.39 71.70 71.07 71.61 71.74 70.75 70.88 70.38 70.20 70.06
37.12 37.18 32.90 28.76 28.75 32.34 35.74 35.28 40.86 47.34 54.66 59.43 61.09 61.92 62.76 64.93 65.53 66.25 65.94 65.94 65.31 66.88 67.53 68.33 67.82 68.25 69.37 69.42 68.28 67.58 67.56 67.80 68.10 68.94 69.67 70.29 70.53 71.94 72.68 72.42 72.47 71.71 71.66 72.26 71.39 71.55 70.87 71.57 70.31
37.59 34.33 37.95 33.44 31.46 32.95 35.06 39.73 45.45 50.88 52.38 56.54 57.99 59.91 61.39 64.29 65.40 66.08 66.51 66.37 65.88 66.44 67.29 68.10 68.13 68.05 69.05 69.65 69.34 67.82 67.45 67.22 67.43 69.27 69.81 70.71 70.35 71.53 71.86 72.91 72.41 71.85 71.64 71.45 71.59 70.91 70.58 71.13 70.57
38.82 39.28 33.89 32.88 28.78 28.10 33.53 35.23 37.64 45.50 48.48 51.27 52.60 57.71 59.73 60.80 62.12 63.70 66.05 66.97 66.69 66.85 67.19 68.45 68.74 68.18 68.53 69.51 69.89 69.47 68.11 67.56 67.23 68.37 70.55 70.43 70.52 70.38 70.76 72.36 72.23 71.60 71.60 71.12 71.02 70.66 70.89 70.95 70.74
36.15 34.00 32.85 31.84 31.99 28.92 29.31 34.65 43.03 46.11 48.45 49.95 51.69 54.84 56.83 56.71 61.35 62.45 65.21 67.26 67.28 67.00 67.08 67.08 68.73 68.29 68.20 68.58 69.30 69.31 69.12 69.29 67.02 67.98 68.98 70.47 70.20 69.92 70.00 71.49 72.18 71.47 71.23 71.58 71.07 70.46 70.65 70.95 70.55
40.02 34.24 31.49 29.02 27.91 29.73 30.98 34.32 47.45 47.79 49.80 51.58 53.79 58.18 61.17 61.11 59.62 62.60 64.68 66.51 67.76 66.57 66.82 66.79 67.46 68.73 68.75 68.94 68.63 68.22 68.58 69.15 69.18 67.93 68.43 69.20 70.40 69.79 70.51 70.27 71.93 72.19 71.84 71.33 71.38 71.18 71.62 70.59 70.18
MSLP
1011.44 1011.73 1012.05 1012.52 1012.58 1011.74 1010.99 1010.28 1009.59 1008.30 1007.83 1008.03 1009.21 1009.65 1010.46 1011.34 1012.26 1013.62 1013.36 1013.39 1013.92 1014.87 1015.20 1015.45 1015.73 1015.82 1015.99 1016.24 1016.21 1016.24 1016.38 1016.49 1016.52 1016.60 1016.63 1016.74 1016.83 1016.82 1016.86 1016.98 1017.14 1017.27 1017.34 1017.34 1017.36 1017.53 1017.56 1017.59 1017.64
1011.44 1011.76 1012.18 1010.49 1011.99 1011.86 1010.94 1010.07 1009.28 1008.44 1007.88 1008.38 1009.10 1009.60 1010.51 1011.77 1012.26 1013.03 1013.49 1013.82 1014.06 1014.81 1015.28 1015.61 1015.78 1015.93 1016.20 1016.36 1016.31 1016.40 1016.57 1016.61 1016.66 1016.73 1016.79 1016.91 1017.02 1017.00 1017.08 1017.20 1017.30 1017.36 1017.59 1017.55 1017.70 1017.71 1017.75 1017.86 1017.87
1011.59 1011.44 1011.88 1010.34 1011.73 1011.62 1011.03 1010.31 1009.18 1007.98 1007.95 1008.33 1009.32 1009.91 1010.96 1012.08 1012.60 1012.96 1013.11 1013.73 1014.39 1015.07 1015.48 1015.68 1015.88 1016.09 1016.29 1016.34 1016.56 1016.60 1016.56 1016.73 1016.88 1016.91 1017.12 1017.11 1017.20 1017.24 1017.18 1017.22 1017.37 1017.38 1017.52 1017.70 1017.81 1017.94 1017.92 1018.02 1018.06
1011.38 1011.51 1012.16 1011.88 1011.81 1011.49 1011.28 1010.62 1009.96 1008.84 1008.78 1009.12 1009.60 1010.68 1011.55 1011.70 1012.48 1012.78 1013.40 1013.83 1014.72 1015.34 1015.63 1015.74 1016.07 1016.26 1016.31 1016.49 1016.65 1016.74 1016.85 1017.06 1017.03 1017.08 1017.18 1017.27 1017.30 1017.29 1017.40 1017.57 1017.64 1017.76 1017.78 1017.87 1017.98 1018.12 1018.23 1018.30 1018.32
1011.11 1011.14 1011.68 1011.73 1011.52 1011.57 1011.28 1010.87 1010.50 1010.02 1009.69 1009.58 1009.64 1011.15 1012.04 1012.61 1012.52 1013.20 1013.81 1014.14 1014.89 1015.64 1015.82 1016.01 1016.24 1016.39 1016.42 1016.70 1016.82 1016.90 1017.10 1017.14 1017.21 1017.30 1017.40 1017.33 1017.39 1017.52 1017.64 1017.64 1017.69 1017.83 1017.98 1018.16 1018.25 1018.27 1018.44 1018.56 1018.54
1011.24 1011.20 1011.62 1011.50 1011.47 1011.55 1011.02 1011.33 1010.63 1009.81 1009.82 1009.69 1010.22 1011.07 1012.47 1012.94 1012.90 1013.65 1014.16 1014.57 1014.99 1015.68 1016.00 1016.29 1016.43 1016.52 1016.56 1016.84 1016.90 1017.02 1017.09 1017.22 1017.32 1017.52 1017.55 1017.56 1017.69 1017.78 1017.69 1017.75 1017.83 1017.97 1018.15 1018.38 1018.56 1018.60 1018.66 1018.81 1018.71
1011.17 1011.32 1011.02 1010.98 1011.09 1010.82 1010.73 1010.80 1010.36 1009.66 1009.73 1009.79 1010.16 1011.38 1012.65 1013.18 1013.39 1013.76 1014.44 1014.90 1015.18 1015.76 1016.24 1016.48 1016.57 1016.75 1016.70 1016.83 1017.06 1017.20 1017.39 1017.42 1017.58 1017.76 1017.72 1017.87 1017.97 1018.00 1017.94 1017.93 1018.01 1018.11 1018.33 1018.56 1018.74 1018.90 1018.89 1018.91 1018.98
1010.84 1010.96 1010.63 1010.30 1010.14 1010.40 1010.36 1010.50 1010.56 1010.27 1010.12 1009.65 1010.24 1011.17 1012.11 1012.76 1013.55 1014.18 1014.82 1015.37 1015.74 1016.14 1016.41 1016.66 1016.85 1016.85 1016.97 1017.19 1017.27 1017.48 1017.62 1017.65 1017.78 1017.85 1017.92 1018.03 1018.14 1018.18 1018.22 1018.36 1018.37 1018.50 1018.70 1018.89 1019.02 1019.07 1019.14 1019.17 1019.18
1010.39 1010.49 1010.38 1009.99 1009.83 1009.67 1010.17 1010.44 1010.96 1010.87 1010.78 1009.68 1009.95 1010.46 1011.84 1012.77 1013.78 1014.54 1015.39 1015.97 1016.28 1016.64 1016.88 1016.89 1017.08 1017.16 1017.32 1017.42 1017.41 1017.68 1017.82 1017.89 1017.87 1018.01 1018.22 1018.36 1018.62 1018.59 1018.59 1018.52 1018.50 1018.75 1018.93 1019.16 1019.29 1019.38 1019.34 1019.47 1019.49
1010.36 1010.17 1009.52 1008.81 1008.98 1009.51 1010.08 1010.52 1010.84 1011.16 1010.63 1010.05 1010.35 1010.82 1012.20 1013.14 1014.15 1014.63 1015.58 1016.15 1016.48 1016.85 1017.12 1017.19 1017.17 1017.39 1017.50 1017.51 1017.70 1017.91 1018.08 1018.12 1018.21 1018.54 1018.62 1018.89 1018.92 1018.98 1018.98 1018.83 1018.67 1018.87 1019.17 1019.44 1019.64 1019.74 1019.76 1019.89 1020.07
1009.79 1009.11 1008.42 1008.42 1008.77 1009.37 1010.02 1010.58 1011.02 1011.22 1010.67 1010.00 1010.89 1011.17 1012.26 1013.20 1014.26 1014.66 1015.35 1015.58 1015.92 1016.67 1017.10 1017.26 1017.29 1017.54 1017.57 1017.67 1018.09 1018.23 1018.41 1018.35 1018.57 1018.76 1018.96 1019.05 1019.18 1019.09 1019.23 1019.12 1019.04 1019.28 1019.63 1019.90 1020.00 1020.13 1020.26 1020.41 1020.40
1009.30 1008.13 1008.06 1007.89 1008.46 1009.08 1009.17 1009.47 1010.48 1010.76 1010.34 1010.24 1010.90 1011.66 1012.11 1013.08 1013.91 1014.47 1015.36 1015.96 1016.36 1016.70 1016.96 1017.24 1017.34 1017.66 1017.75 1017.90 1018.23 1018.44 1018.56 1018.55 1018.73 1018.80 1018.95 1019.19 1019.41 1019.46 1019.51 1019.40 1019.32 1019.65 1019.96 1020.17 1020.35 1020.44 1020.64 1020.62 1020.54
1008.85 1007.71 1007.55 1007.09 1007.68 1008.14 1008.89 1009.70 1009.73 1010.27 1010.44 1010.72 1010.86 1011.79 1012.58 1013.31 1013.89 1014.36 1014.90 1015.66 1016.19 1016.63 1016.81 1017.16 1017.33 1017.67 1017.90 1018.04 1018.31 1018.59 1018.68 1018.70 1018.78 1018.88 1018.98 1019.21 1019.40 1019.56 1019.76 1019.79 1019.57 1019.84 1020.02 1020.21 1020.48 1020.56 1020.75 1020.76 1020.50
1007.82 1007.57 1007.32 1006.77 1006.75 1008.17 1009.18 1009.98 1010.10 1010.09 1010.28 1010.92 1010.91 1011.45 1012.27 1013.04 1013.64 1014.36 1015.12 1015.48 1015.96 1016.42 1016.65 1017.07 1017.39 1017.57 1017.90 1018.04 1018.28 1018.43 1018.63 1018.69 1018.86 1018.98 1019.05 1019.12 1019.28 1019.53 1019.76 1019.86 1019.84 1019.88 1020.06 1020.24 1020.52 1020.56 1020.79 1020.74 1020.53
1007.82 1007.78 1007.16 1006.72 1007.15 1008.03 1008.99 1010.08 1010.21 1010.00 1010.54 1010.93 1011.20 1011.44 1012.00 1012.66 1013.51 1013.90 1014.62 1014.96 1015.25 1015.85 1016.36 1016.84 1017.22 1017.42 1017.76 1017.95 1018.23 1018.33 1018.43 1018.70 1018.81 1018.97 1019.24 1019.18 1019.16 1019.45 1019.70 1019.86 1019.97 1019.88 1020.06 1020.24 1020.46 1020.63 1020.82 1020.74 1020.70
1008.16 1008.05 1007.78 1007.60 1007.66 1008.03 1008.56 1009.90 1009.81 1009.98 1010.73 1010.90 1011.15 1011.20 1011.55 1012.09 1012.74 1013.26 1013.97 1014.56 1015.04 1015.40 1015.96 1016.60 1017.03 1017.42 1017.67 1017.76 1018.02 1018.20 1018.44 1018.54 1018.72 1018.83 1019.18 1019.32 1019.10 1019.22 1019.56 1019.84 1019.95 1020.21 1020.28 1020.41 1020.56 1020.58 1020.83 1021.01 1021.17
1009.04 1008.63 1008.30 1007.85 1007.48 1007.96 1008.95 1009.72 1009.28 1008.99 1009.84 1010.60 1010.64 1010.87 1011.22 1011.87 1012.10 1012.56 1013.33 1014.02 1014.44 1014.78 1015.34 1016.14 1016.70 1017.10 1017.27 1017.45 1017.60 1018.06 1018.34 1018.48 1018.56 1018.83 1019.06 1019.15 1019.18 1019.25 1019.42 1019.80 1019.87 1020.14 1020.49 1020.52 1020.62 1020.86 1021.09 1021.24 1021.18
1009.42 1008.95 1008.47 1008.20 1008.30 1008.28 1009.15 1009.12 1009.01 1009.32 1009.13 1009.46 1010.34 1010.58 1010.85 1011.25 1011.61 1011.90 1012.76 1013.40 1014.08 1014.44 1015.04 1015.61 1016.17 1016.84 1017.15 1017.33 1017.55 1017.99 1018.41 1018.60 1018.54 1018.78 1018.98 1019.06 1019.09 1019.22 1019.49 1019.74 1019.82 1020.14 1020.55 1020.68 1020.79 1020.86 1021.07 1021.22 1021.26
1008.85 1008.92 1008.72 1007.92 1007.71 1008.13 1008.37 1008.65 1008.47 1009.14 1009.34 1010.04 1009.80 1009.83 1009.91 1009.93 1010.44 1011.22 1011.99 1012.78 1013.77 1014.50 1014.92 1015.43 1015.89 1016.60 1017.16 1017.40 1017.93 1018.40 1018.70 1018.76 1018.89 1018.88 1018.82 1018.92 1019.21 1019.35 1019.55 1019.56 1019.74 1020.03 1020.32 1020.62 1020.96 1021.20 1021.24 1021.31 1021.36
1008.66 1008.70 1008.80 1008.20 1007.45 1008.13 1008.55 1008.89 1009.06 1009.95 1009.96 1009.86 1009.38 1009.68 1010.01 1009.98 1010.47 1010.71 1011.39 1012.24 1013.12 1013.89 1014.46 1015.02 1015.47 1016.20 1016.63 1016.88 1017.26 1017.78 1018.29 1018.57 1018.60 1018.59 1018.84 1018.92 1019.10 1019.28 1019.53 1019.59 1019.66 1019.86 1020.29 1020.74 1021.02 1021.16 1021.54 1021.44 1021.31
1008.47 1008.36 1008.72 1008.65 1008.14 1008.43 1008.90 1009.58 1009.91 1010.16 1010.54 1010.44 1010.32 1010.30 1010.11 1009.78 1010.08 1010.46 1010.81 1011.46 1012.49 1013.48 1013.96 1014.47 1014.79 1015.46 1016.10 1016.61 1017.14 1017.70 1018.22 1018.58 1018.92 1019.04 1018.99 1019.07 1019.08 1019.21 1019.40 1019.57 1019.82 1020.01 1020.24 1020.56 1020.87 1021.00 1021.04 1021.40 1021.52
1008.37 1007.74 1008.25 1008.64 1009.03 1009.13 1009.09 1010.22 1010.10 1010.06 1010.49 1010.30 1010.27 1010.13 1009.97 1009.83 1010.01 1010.19 1010.70 1011.08 1011.72 1012.67 1013.39 1013.84 1014.47 1014.96 1015.62 1016.24 1016.83 1017.35 1018.02 1018.64 1018.75 1018.76 1018.84 1018.93 1019.08 1019.26 1019.44 1019.41 1019.54 1019.93 1020.27 1020.45 1020.48 1020.56 1020.78 1021.19 1021.56
1007.64 1007.67 1008.15 1008.82 1009.47 1009.84 1009.76 1010.24 1009.76 1010.03 1010.21 1009.26 1009.05 1009.60 1009.58 1009.60 1009.61 1009.64 1009.86 1010.56 1011.30 1011.86 1012.69 1013.46 1014.21 1014.67 1015.22 1015.84 1016.20 1016.94 1017.72 1018.23 1018.42 1018.70 1018.97 1019.11 1019.04 1019.11 1019.25 1019.44 1019.67 1019.93 1020.11 1020.20 1020.44 1020.52 1020.72 1020.98 1021.28
1007.08 1007.87 1008.68 1009.72 1010.27 1010.86 1010.18 1010.26 1009.61 1009.74 1008.52 1008.19 1008.36 1008.38 1008.93 1009.30 1009.40 1009.27 1009.69 1010.24 1010.85 1011.66 1012.04 1013.04 1013.73 1014.31 1014.83 1015.38 1015.72 1016.43 1017.22 1017.98 1018.50 1018.82 1019.03 1019.22 1019.28 1019.29 1019.28 1019.37 1019.55 1019.86 1020.00 1020.28 1020.51 1020.54 1020.76 1020.92 1021.19
1007.90 1008.89 1010.26 1011.16 1011.45 1011.62 1010.37 1010.27 1008.98 1007.65 1007.29 1006.99 1006.85 1006.77 1007.67 1007.96 1008.44 1008.84 1009.24 1009.48 1010.28 1010.82 1011.60 1012.30 1013.30 1014.00 1014.47 1014.90 1015.37 1015.91 1016.62 1017.35 1018.01 1018.48 1018.77 1019.07 1019.31 1019.34 1019.35 1019.33 1019.60 1019.80 1020.01 1020.11 1020.34 1020.64 1020.77 1020.94 1021.14
1008.86 1009.47 1010.71 1011.69 1012.39 1011.86 1010.94 1010.02 1008.63 1007.36 1006.30 1006.46 1006.10 1005.94 1006.92 1007.19 1007.24 1007.68 1008.09 1008.56 1009.30 1010.21 1010.83 1011.52 1012.69 1013.35 1014.09 1014.46 1014.74 1015.38 1016.04 1016.85 1017.38 1017.92 1018.31 1018.52 1018.80 1018.74 1018.64 1019.02 1019.25 1019.53 1019.85 1020.05 1020.23 1020.49 1020.52 1020.78 1021.10
1009.94 1010.48 1011.04 1012.05 1013.15 1012.49 1011.37 1009.87 1008.81 1007.93 1006.94 1006.26 1006.28 1006.74 1006.82 1006.96 1006.66 1006.66 1007.12 1007.67 1008.40 1009.36 1010.15 1010.76 1011.68 1012.84 1013.39 1013.84 1014.30 1014.88 1015.47 1016.22 1016.98 1017.44 1017.96 1018.20 1018.27 1018.30 1018.41 1018.69 1019.04 1019.40 1019.75 1019.91 1020.07 1020.36 1020.47 1020.72 1021.04
1011.04 1011.74 1012.38 1013.11 1014.12 1013.91 1012.42 1011.03 1009.88 1009.24 1008.61 1007.86 1007.53 1007.18 1007.21 1007.00 1006.75 1006.90 1007.05 1007.11 1007.56 1008.19 1009.11 1010.34 1010.88 1011.60 1012.35 1013.06 1013.78 1014.29 1014.96 1015.49 1016.25 1017.02 1017.57 1017.92 1017.94 1017.96 1018.24 1018.58 1018.83 1019.26 1019.60 1019.83 1020.17 1020.43 1020.47 1020.68 1020.88
1013.00 1013.97 1014.47 1014.84 1015.07 1014.96 1013.99 1012.63 1011.08 1010.39 1009.58 1009.16 1008.24 1007.51 1006.70 1006.36 1005.91 1005.62 1005.74 1006.42 1006.97 1007.68 1008.54 1009.44 1010.36 1011.04 1011.96 1012.58 1013.25 1013.72 1014.44 1015.09 1015.59 1016.34 1016.93 1017.38 1017.65 1017.76 1017.98 1018.26 1018.62 1019.01 1019.41 1019.63 1020.00 1020.26 1020.57 1020.80 1020.89
1014.92 1016.03 1016.20 1016.72 1017.08 1016.24 1015.01 1013.68 1012.39 1011.48 1010.34 1009.76 1008.95 1007.66 1006.54 1005.14 1004.60 1004.30 1004.91 1005.78 1006.48 1007.44 1007.98 1008.61 1009.56 1010.11 1010.70 1011.34 1012.39 1013.08 1013.72 1014.55 1015.07 1015.59 1016.13 1016.71 1017.23 1017.46 1017.63 1018.02 1018.34 1018.60 1018.90 1019.34 1019.74 1019.96 1020.22 1020.58 1020.80
Wind_Speed
6 4 2 1 4 3 2 2 3 3 4 7 16 6 6 4 4 3 5 9 15 13 8 9 12 12 12 12 13 15 14 12 11 11 11 11 10 10 9 10 11 9 10 10 10 10 11 11 12
6 5 1 2 2 2 3 2 4 7 1 16 7 9 5 3 4 9 9 11 17 12 7 6 11 12 13 12 13 13 13 12 11 12 11 10 10 10 10 10 11 11 11 11 10 10 11 9 11
7 4 1 3 2 1 4 3 8 1 12 11 5 8 4 3 9 14 11 16 14 10 6 7 13 13 14 13 13 12 12 11 11 12 11 11 10 9 9 11 11 11 11 12 11 11 10 10 10
6 2 2 2 4 2 6 9 11 3 8 8 6 9 5 6 12 8 16 17 13 9 8 11 15 14 14 13 12 11 11 10 11 12 11 12 11 10 11 11 10 12 11 11 11 11 10 9 8
2 2 2 2 1 2 5 10 10 9 8 6 3 6 10 2 15 17 15 15 13 7 6 9 14 14 13 13 13 12 12 12 11 11 11 12 10 11 10 11 11 11 11 11 11 11 9 8 7
2 1 1 2 1 2 3 8 8 7 4 8 8 8 4 15 16 14 13 13 11 10 6 6 13 13 12 12 11 12 12 12 10 11 10 10 10 11 11 12 11 11 11 11 9 9 10 9 9
2 1 3 2 3 3 3 3 5 6 6 4 9 5 9 13 14 14 12 12 11 8 6 5 5 9 13 12 12 12 12 11 10 10 9 9 9 9 10 11 11 11 13 12 10 9 9 9 9
2 2 3 3 4 2 4 5 6 10 6 12 9 5 10 16 15 14 12 10 9 6 5 5 4 5 5 5 12 11 11 11 11 9 9 9 9 8 8 9 9 10 10 10 10 10 10 10 10
4 2 2 3 3 3 4 3 5 7 7 1 3 7 17 18 16 15 12 9 8 6 5 5 5 5 5 4 6 10 12 11 11 9 9 6 3 3 5 5 9 9 10 10 11 12 12 12 10
3 2 6 6 4 4 9 5 7 4 5 2 13 20 20 20 16 16 13 12 13 9 6 5 5 5 5 4 3 4 4 2 3 3 4 3 3 3 3 5 8 9 10 13 12 11 9 8 3
6 5 4 4 8 14 6 9 12 10 6 3 17 23 21 21 16 16 14 16 14 11 8 6 6 5 5 4 3 2 2 2 2 4 4 2 3 1 2 1 2 3 9 3 4 5 3 4 3
3 11 10 4 12 12 15 16 7 10 2 6 17 18 21 21 17 15 13 12 11 11 10 8 7 5 4 3 3 3 2 2 3 3 5 4 3 2 2 1 2 3 3 4 4 3 4 3 5
6 9 6 7 12 14 14 9 7 13 6 6 14 20 18 17 17 14 14 11 12 11 10 10 7 6 4 4 3 3 3 3 3 4 3 4 4 3 3 2 1 1 2 3 3 3 3 2 5
4 5 10 10 9 10 10 7 2 4 7 12 16 22 19 17 19 12 12 12 12 11 9 8 7 6 6 5 5 4 4 4 3 3 4 5 4 4 4 4 3 2 1 1 3 3 3 2 3
8 10 8 2 11 8 13 5 1 6 6 13 14 20 18 19 18 16 15 15 16 12 10 9 8 7 7 6 5 4 4 4 4 3 4 5 5 5 4 3 3 2 2 1 1 4 2 3 3
3 4 3 2 9 7 4 4 4 7 7 11 16 19 20 19 22 18 17 15 14 12 13 9 9 8 7 7 5 4 4 4 4 3 4 5 5 6 5 3 3 3 1 0 1 2 2 1 2
7 1 1 3 11 7 5 4 15 12 15 13 16 18 18 17 20 19 18 16 17 14 14 13 8 10 9 7 5 5 5 4 4 4 4 5 5 5 5 4 3 4 3 1 0 1 2 2 1
2 1 2 2 4 5 8 9 10 13 18 20 18 17 17 19 21 19 18 18 16 15 14 13 11 8 7 5 4 3 2 2 3 4 4 5 4 5 4 4 4 4 3 1 1 1 1 1 1
3 3 3 4 6 2 9 9 17 10 13 17 21 18 19 19 16 20 18 19 17 15 15 14 13 9 6 3 4 2 3 2 2 3 5 5 4 5 4 3 4 4 4 3 3 2 1 1 2
3 2 4 6 6 3 3 7 6 4 5 17 23 18 16 17 16 20 19 19 18 19 17 15 14 12 8 4 3 3 3 2 1 3 3 5 5 5 5 4 3 4 4 4 4 2 1 1 1
2 5 4 6 6 5 6 4 5 2 2 2 4 5 10 15 15 18 19 21 19 19 19 17 16 14 10 7 4 3 4 3 2 0 2 4 5 5 5 6 4 4 3 4 4 4 4 3 1
4 8 6 4 3 1 3 4 6 12 6 9 10 7 7 14 13 15 18 21 21 20 17 17 15 14 10 10 7 6 5 4 3 4 3 3 5 5 5 5 5 5 4 4 3 3 3 3 3
10 6 6 5 4 4 3 3 4 9 11 18 19 14 11 12 15 17 20 21 21 20 18 16 15 13 11 11 11 7 5 3 2 3 4 4 4 5 5 5 5 4 4 3 4 3 2 2 2
6 2 6 5 4 2 7 6 6 6 16 15 17 17 13 12 14 16 17 18 19 17 17 16 16 15 12 12 10 11 9 7 4 3 4 3 3 3 5 5 5 4 4 5 4 3 5 2 2
7 7 3 3 2 6 5 4 9 9 11 18 24 23 17 17 15 16 17 19 18 20 19 17 17 16 14 13 11 11 10 9 8 6 5 5 3 3 6 5 5 4 4 5 5 4 4 4 2
2 7 7 6 4 4 4 5 3 8 12 8 17 16 13 18 17 19 15 20 20 21 21 20 18 17 15 14 14 10 9 6 5 6 4 4 5 6 6 6 5 6 6 5 6 3 3 3 3
4 4 2 8 4 4 2 5 3 8 14 12 4 5 9 16 15 19 19 20 20 21 21 22 20 17 17 17 13 11 10 9 7 7 5 4 5 5 6 7 7 6 6 5 5 4 4 4 3
7 1 3 5 4 4 4 3 2 8 8 8 9 7 5 7 9 11 17 18 19 19 20 19 20 21 19 18 15 12 12 10 8 6 7 7 6 6 6 6 6 6 6 6 6 4 3 4 4
7 7 6 4 4 5 4 4 2 3 5 8 9 8 11 12 17 16 18 18 18 17 19 20 19 20 17 16 15 14 12 10 9 9 8 7 6 6 6 7 7 7 7 6 6 6 5 6 5
16 4 4 5 4 1 2 2 6 9 7 6 9 11 14 12 17 22 16 16 17 17 19 20 19 20 19 18 16 15 13 11 11 10 9 8 8 6 8 6 6 6 7 7 7 7 6 6 6
Wind_Direction
169 136 122 22 237 257 288 270 315 336 92 144 148 149 171 92 178 191 145 127 127 143 158 156 158 151 145 137 136 139 137 136 135 130 121 117 122 118 118 125 124 126 125 119 110 101 105 103 103
130 151 169 226 266 351 287 294 256 266 355 128 130 117 73 100 90 117 124 140 132 141 145 147 158 150 148 146 140 141 140 140 143 137 126 125 125 119 121 115 119 121 121 115 109 98 91 94 104
154 198 257 353 69 35 310 344 288 63 127 131 113 36 60 77 107 140 131 133 130 136 131 157 154 149 149 153 145 145 151 143 146 136 134 121 126 116 121 118 115 120 115 119 108 100 98 105 106
178 198 83 49 39 44 338 341 348 102 71 62 107 75 81 118 140 131 132 129 128 133 139 158 152 151 156 155 149 143 147 146 141 135 137 127 122 122 119 110 113 121 115 114 111 107 107 109 106
294 18 70 96 266 65 359 341 327 285 329 109 147 87 112 80 112 127 131 129 130 127 144 147 154 153 159 157 159 156 145 143 147 142 141 131 123 118 123 116 117 114 113 112 114 114 111 107 89
314 150 229 116 308 97 120 243 283 268 165 111 101 102 77 132 125 133 129 126 132 137 136 154 156 160 163 155 155 149 147 143 150 142 141 127 130 137 131 126 128 126 126 119 111 109 110 100 85
276 19 294 149 164 152 224 291 330 81 155 108 140 89 123 136 137 128 124 124 129 130 127 135 148 155 164 159 157 156 149 151 149 149 141 137 137 135 133 129 122 119 121 118 114 104 108 104 102
219 202 287 29 325 172 169 151 322 46 8 111 157 156 158 149 135 122 120 121 117 115 118 135 131 135 135 147 156 154 155 153 152 150 151 138 147 150 134 122 124 123 118 115 113 111 110 96 90
205 289 258 170 172 122 105 70 9 350 277 221 299 128 142 135 127 118 119 116 119 127 129 129 130 139 133 155 160 153 157 162 164 158 152 142 80 101 113 143 136 124 117 109 112 109 108 101 99
184 202 220 219 97 146 140 120 109 11 308 105 85 116 137 132 137 136 143 147 153 155 156 153 151 157 146 160 120 143 161 157 159 131 113 108 111 127 148 160 145 131 119 106 104 108 102 100 73
200 230 192 131 109 136 110 144 152 178 257 228 146 146 144 147 151 150 162 167 165 162 167 174 164 169 169 146 142 164 146 187 148 159 137 146 123 104 99 22 69 82 96 74 91 85 62 73 97
260 233 249 113 136 141 158 160 176 195 297 237 158 158 146 156 161 161 159 160 159 168 176 180 173 166 189 141 161 175 167 190 181 183 157 139 138 155 140 168 142 110 120 112 106 108 109 77 96
249 273 260 247 169 160 142 183 169 198 195 244 170 161 155 162 167 169 168 161 159 170 179 185 173 167 178 158 163 169 201 206 205 174 184 140 144 169 148 175 160 143 139 128 136 82 65 108 102
234 274 267 263 225 140 157 135 238 197 179 186 167 166 164 170 173 163 165 165 172 176 181 174 182 163 167 176 176 195 195 208 226 197 195 182 175 168 175 169 181 191 205 109 125 96 47 21 30
245 273 287 149 136 144 130 122 241 122 128 170 186 171 165 176 174 172 177 176 171 184 170 174 179 168 174 186 192 194 204 192 219 202 173 187 173 175 166 177 194 214 173 199 164 109 121 22 353
292 61 48 133 149 154 149 124 180 145 151 186 189 179 179 172 178 177 181 178 176 176 173 170 185 179 185 189 202 205 181 194 206 190 183 188 188 179 150 160 187 170 146 127 232 99 58 318 285
359 187 135 46 203 145 190 157 225 162 165 196 194 189 184 177 183 181 178 176 179 179 174 171 177 183 195 178 203 188 171 190 193 163 194 198 176 157 156 172 188 156 143 181 89 82 130 197 259
172 43 330 120 159 136 199 249 206 205 179 184 189 192 189 178 191 180 173 177 183 178 177 176 171 172 177 161 129 101 100 214 162 178 197 182 166 152 161 174 170 153 158 208 99 95 91 202 176
159 155 273 281 234 246 204 199 202 192 178 187 191 197 201 185 181 178 170 174 175 178 172 177 169 169 161 144 136 116 190 182 187 173 203 176 168 169 178 180 167 158 173 174 155 156 204 291 150
192 239 278 293 280 149 136 235 185 98 199 192 194 194 204 191 171 176 175 170 170 176 179 173 179 170 173 164 150 141 148 197 197 159 193 188 170 174 176 176 194 161 135 157 169 176 152 333 167
230 225 187 212 342 44 113 11 177 160 237 289 215 216 221 203 179 181 174 170 174 180 177 178 179 177 174 164 127 90 80 69 61 115 214 208 179 181 195 181 165 154 152 187 162 180 148 152 239
255 213 222 239 97 246 149 267 248 212 218 245 230 231 236 210 198 181 175 177 178 183 182 182 179 177 179 166 165 149 154 155 190 182 193 210 197 191 202 194 184 169 176 183 165 170 134 135 200
228 188 206 194 153 103 316 78 260 160 211 234 223 225 224 214 214 191 186 181 185 180 181 183 184 183 177 179 168 162 148 166 168 163 189 200 226 207 210 205 176 173 181 193 170 181 194 169 151
234 137 53 57 118 77 232 133 286 189 221 234 238 232 218 211 221 209 198 181 184 186 179 185 179 190 182 179 168 172 167 166 164 182 183 192 222 219 223 219 187 185 178 176 185 203 187 169 136
70 73 353 12 30 197 237 80 240 247 231 212 216 227 204 214 208 210 193 191 185 184 185 180 186 188 192 184 176 178 180 171 181 188 187 169 179 215 225 209 187 196 194 186 179 181 177 187 182
305 145 153 183 178 222 201 171 294 287 275 228 232 232 200 200 205 200 195 193 189 190 186 181 186 190 191 193 187 179 175 181 179 180 187 192 195 209 200 202 199 195 213 186 187 184 193 176 211
313 42 284 101 25 70 264 289 277 346 17 14 314 197 219 217 211 201 192 194 190 189 191 186 181 192 192 195 192 186 181 171 184 181 187 200 200 213 192 197 193 193 208 200 192 203 209 192 208
86 312 56 6 123 152 313 306 244 356 348 1 15 340 271 236 217 204 214 198 193 191 190 191 187 188 190 191 193 193 189 183 171 166 189 205 213 211 192 192 192 190 199 199 193 208 236 215 235
11 7 16 109 94 144 133 287 297 300 341 341 325 314 288 240 229 209 206 206 198 193 189 190 190 188 189 192 194 194 193 189 167 177 190 201 207 206 209 195 195 193 195 196 193 212 215 218 228
83 81 93 97 325 31 220 102 355 315 330 352 355 356 344 282 236 214 198 198 195 193 189 191 194 192 191 189 189 196 190 189 185 188 190 187 203 202 205 203 202 199 202 190 193 204 211 217 224